(171872) = 2002 YU21 = 2001 QJ171

Discovered at Socorro on 2001-08-25 by LINEAR.

Orbit

Orbit type: Main Belt

Note: WebGL enabled browser required.

epoch2024-03-31.0
epoch JD2460400.5
perihelion date2023-02-05.13822
perihelion JD2459980.63822
argument of perihelion (°)122.26121
ascending node (°)275.84979
inclination (°)12.94788
eccentricity0.1798483
perihelion distance (AU)2.4485497
Tisserand w.r.t. Jupiter3.2
ΔV w.r.t. Earth (km/sec)10.6
semimajor axis (AU)2.9854839
mean anomaly (°)80.22100
mean daily motion (°/day)0.19106530
aphelion distance (AU)3.522
period (years)5.16
P-vector [x]0.76542794
P-vector [y]0.48887884
P-vector [z]0.41847048
Q-vector [x]-0.60368586
Q-vector [y]0.77073382
Q-vector [z]0.20379589
absolute magnitude15.32
phase slope0.15
uncertainty0
referenceMPEC 2024-D64
observations used774
oppositions14
arc length (days)8212
first opposition used2001
last opposition used2024
residual rms (arc-secs)0.67
perturbers coarse indicatorM-v
perturbers precise indicator003Ek
first observation date used2001-08-25.0
last observation date used2024-02-18.0
computer nameMPCLINUX
JD of orbit computation2456937.260533
perihelion JD uncertainty (days)8.2845E-05
argument of perihelion uncertainty (°)3.2298E-05
ascending node uncertainty (°)2.5554E-05
inclination uncertainty (°)6.1341E-06
eccentricity uncertainty 5.9878E-08
perihelion distance uncertainty (AU)1.7823E-07
Minimum Orbit Intersection Distances (in AU)
for orbit epoch: 2460400.5, reference: E2024-GH2
Mercury2.13558
Venus1.7495
Earth1.48584
Mars0.99621
Jupiter1.97145
Saturn6.2607
Uranus15.1867
Neptune27.1842

Observations

782 total observations over interval: 2001 08 25.21015 – 2024 02 18.323547
These data are available for download (format description).

Date (UT) J2000 RA J2000 Dec Magn Location Ref
2001 08 25.21015 21 04 03.25 -01 22 09.6 18.7   704 – Lincoln Laboratory ETS, New Mexico MPS 34786
2001 08 25.22313 21 04 02.61 -01 22 10.8 19.4   704 – Lincoln Laboratory ETS, New Mexico MPS 34786
2001 08 25.23631 21 04 01.95 -01 22 12.7 19.4   704 – Lincoln Laboratory ETS, New Mexico MPS 34787
2001 08 25.24927 21 04 01.33 -01 22 13.6 19.1   704 – Lincoln Laboratory ETS, New Mexico MPS 34787
2001 08 25.26229 21 04 00.66 -01 22 15.2 19.8   704 – Lincoln Laboratory ETS, New Mexico MPS 34787
2001 08 27.19489 21 02 30.52 -01 26 03.6 18.9   704 – Lincoln Laboratory ETS, New Mexico MPS 34787
2001 08 27.22102 21 02 29.20 -01 26 07.0 19.5   704 – Lincoln Laboratory ETS, New Mexico MPS 34787
2001 08 27.23411 21 02 28.66 -01 26 09.1 19.4   704 – Lincoln Laboratory ETS, New Mexico MPS 34787
2001 08 27.24719 21 02 28.02 -01 26 09.5 19.2   704 – Lincoln Laboratory ETS, New Mexico MPS 34787
2001 08 28.20759 21 01 44.42 -01 28 08.8 19.4   704 – Lincoln Laboratory ETS, New Mexico MPS 34787
2001 08 28.22120 21 01 43.74 -01 28 12.1 19.7   704 – Lincoln Laboratory ETS, New Mexico MPS 34787
2001 08 28.24825 21 01 42.51 -01 28 14.8 18.8   704 – Lincoln Laboratory ETS, New Mexico MPS 34787
2002 12 06.30186 06 08 03.90 +27 30 51.5 18.8   704 – Lincoln Laboratory ETS, New Mexico MPS 71725
2002 12 06.31730 06 08 03.00 +27 30 47.0 19.1   704 – Lincoln Laboratory ETS, New Mexico MPS 71725
2002 12 06.33277 06 08 02.03 +27 30 43.0 19.0   704 – Lincoln Laboratory ETS, New Mexico MPS 71725
2002 12 06.34822 06 08 01.20 +27 30 38.4 19.1   704 – Lincoln Laboratory ETS, New Mexico MPS 71725
2002 12 06.36366 06 08 00.30 +27 30 34.2 19.1   704 – Lincoln Laboratory ETS, New Mexico MPS 71725
2002 12 11.30498 06 03 13.99 +27 07 00.4 18.7   704 – Lincoln Laboratory ETS, New Mexico MPS 71725
2002 12 11.32062 06 03 13.03 +27 06 56.0 18.8   704 – Lincoln Laboratory ETS, New Mexico MPS 71725
2002 12 11.33614 06 03 12.09 +27 06 51.5 18.5   704 – Lincoln Laboratory ETS, New Mexico MPS 71725
2002 12 11.36740 06 03 10.16 +27 06 42.0 18.7   704 – Lincoln Laboratory ETS, New Mexico MPS 71725
2002 12 31.24070 05 43 19.87 +25 17 17.4 19.7   704 – Lincoln Laboratory ETS, New Mexico MPS 70183
2002 12 31.27059 05 43 18.17 +25 17 06.3 19.6   704 – Lincoln Laboratory ETS, New Mexico MPS 70183
2002 12 31.28693 05 43 17.23 +25 17 01.1 19.9   704 – Lincoln Laboratory ETS, New Mexico MPS 70183
2003 01 04.24847 05 39 48.00 +24 53 54.4 19.2   704 – Lincoln Laboratory ETS, New Mexico MPS 70183
2003 01 04.26304 05 39 47.23 +24 53 50.0 19.4   704 – Lincoln Laboratory ETS, New Mexico MPS 70183
2003 01 04.27752 05 39 46.51 +24 53 44.5 19.5   704 – Lincoln Laboratory ETS, New Mexico MPS 70183
2003 01 04.29226 05 39 45.74 +24 53 39.6 19.5   704 – Lincoln Laboratory ETS, New Mexico MPS 70183
2003 01 08.25776 05 36 35.90 +24 30 43.4 20.2   704 – Lincoln Laboratory ETS, New Mexico MPS 70183
2003 01 08.27350 05 36 35.14 +24 30 37.4 20.4   704 – Lincoln Laboratory ETS, New Mexico MPS 70183
2003 01 08.28846 05 36 34.53 +24 30 32.5 20.2   704 – Lincoln Laboratory ETS, New Mexico MPS 70183
2006 06 19.42479 20 43 01.31 -11 28 53.2 20.4 V 691 – Steward Observatory, Kitt Peak-Spacewatch MPS 173834
2006 06 19.44221 20 43 00.93 -11 28 49.4 20.0 V 691 – Steward Observatory, Kitt Peak-Spacewatch MPS 173834
2006 06 19.45964 20 43 00.46 -11 28 45.8 20.3 V 691 – Steward Observatory, Kitt Peak-Spacewatch MPS 173834
2006 07 26.23156 20 17 08.70 -10 09 32.0 19.1 R 644 – Palomar Mountain/NEAT MPS 175081
2006 07 26.25196 20 17 07.57 -10 09 31.3 19.2 R 644 – Palomar Mountain/NEAT MPS 175081
2006 07 26.27232 20 17 06.45 -10 09 30.4 18.9 R 644 – Palomar Mountain/NEAT MPS 175081
2006 08 13.22659 20 01 41.75 -10 05 57.9 19.7 R 644 – Palomar Mountain/NEAT MPS 175681
2006 08 13.24705 20 01 40.76 -10 05 58.1 19.5 R 644 – Palomar Mountain/NEAT MPS 175681
2006 08 13.26869 20 01 39.72 -10 05 58.2 19.5 R 644 – Palomar Mountain/NEAT MPS 175681
2007 11 03.37217 04 39 45.49 +34 07 55.7 19.8   704 – Lincoln Laboratory ETS, New Mexico MPS 224624
2007 11 03.39662 04 39 44.51 +34 07 51.9 20.4   704 – Lincoln Laboratory ETS, New Mexico MPS 224624
2007 11 03.40880 04 39 44.01 +34 07 47.6 20.2   704 – Lincoln Laboratory ETS, New Mexico MPS 224624
2007 11 03.42097 04 39 43.60 +34 07 47.7 20.2   704 – Lincoln Laboratory ETS, New Mexico MPS 224624
2007 11 08.31736 04 36 28.01 +33 51 36.2 19.0   704 – Lincoln Laboratory ETS, New Mexico MPS 224624
2007 11 08.32957 04 36 27.42 +33 51 32.2 19.2   704 – Lincoln Laboratory ETS, New Mexico MPS 224624
2007 11 08.34182 04 36 26.93 +33 51 30.3 19.4   704 – Lincoln Laboratory ETS, New Mexico MPS 224624
2007 11 17.31614 04 29 01.75 +33 09 48.4 19.0   704 – Lincoln Laboratory ETS, New Mexico MPS 228190
2007 11 17.32876 04 29 01.18 +33 09 43.8 19.4   704 – Lincoln Laboratory ETS, New Mexico MPS 228190
2007 11 17.34139 04 29 00.21 +33 09 39.7 19.6   704 – Lincoln Laboratory ETS, New Mexico MPS 228190
2007 11 17.35423 04 28 59.57 +33 09 35.8 19.2   704 – Lincoln Laboratory ETS, New Mexico MPS 228190
2007 11 17.36688 04 28 58.87 +33 09 31.0 18.8   704 – Lincoln Laboratory ETS, New Mexico MPS 228190
2007 12 02.32689 04 14 41.34 +31 27 37.2 18.5   704 – Lincoln Laboratory ETS, New Mexico MPS 229697
2007 12 02.33964 04 14 40.57 +31 27 31.3 19.3   704 – Lincoln Laboratory ETS, New Mexico MPS 229697
2007 12 02.35237 04 14 39.84 +31 27 25.3 18.5   704 – Lincoln Laboratory ETS, New Mexico MPS 229697
2007 12 16.21661 04 02 47.93 +29 29 33.0 19.6   704 – Lincoln Laboratory ETS, New Mexico MPS 231292
2007 12 16.22963 04 02 47.30 +29 29 26.6 19.2   704 – Lincoln Laboratory ETS, New Mexico MPS 231292
2007 12 16.24279 04 02 46.74 +29 29 20.2 19.0   704 – Lincoln Laboratory ETS, New Mexico MPS 231292
2007 12 16.25580 04 02 46.15 +29 29 12.6 19.5   704 – Lincoln Laboratory ETS, New Mexico MPS 231292
2007 12 16.25933 04 02 45.99 +29 29 10.8 18.5 V 703 – Catalina Sky Survey MPS 232519
2007 12 16.26597 04 02 45.70 +29 29 06.5 18.5 V 703 – Catalina Sky Survey MPS 232519
2007 12 16.27264 04 02 45.38 +29 29 03.3 18.3 V 703 – Catalina Sky Survey MPS 232519
2007 12 16.27931 04 02 45.09 +29 29 00.1 18.6 V 703 – Catalina Sky Survey MPS 232519
2007 12 16.31656 04 02 43.44 +29 28 39.7 18.4 V G96 – Mt. Lemmon Survey MPS 232519
2007 12 16.32332 04 02 43.11 +29 28 36.1 18.2 V G96 – Mt. Lemmon Survey MPS 232519
2007 12 16.33008 04 02 42.82 +29 28 32.4 18.3 V G96 – Mt. Lemmon Survey MPS 232519
2007 12 31.15656 03 55 01.39 +27 22 01.3 19.1 r 699 – Lowell Observatory-LONEOS MPS 255715
2007 12 31.18035 03 55 00.75 +27 21 50.8 19.0 r 699 – Lowell Observatory-LONEOS MPS 255715
2007 12 31.20421 03 55 00.29 +27 21 39.4 19.0 r 699 – Lowell Observatory-LONEOS MPS 255715
2007 12 31.21965 03 55 00.01 +27 21 32.0 18.6 V 703 – Catalina Sky Survey MPS 233270
2007 12 31.22682 03 54 59.86 +27 21 29.3 18.6 V 703 – Catalina Sky Survey MPS 233270
2007 12 31.22804 03 54 59.77 +27 21 27.9 19.0 r 699 – Lowell Observatory-LONEOS MPS 255715
2007 12 31.23396 03 54 59.79 +27 21 25.4 18.9 V 703 – Catalina Sky Survey MPS 233270
2007 12 31.24109 03 54 59.58 +27 21 21.6 18.6 V 703 – Catalina Sky Survey MPS 233270
2008 01 05.18972 03 53 52.98 +26 42 59.8 19.2   704 – Lincoln Laboratory ETS, New Mexico MPS 234082
2008 01 05.20262 03 53 52.76 +26 42 52.6 19.4   704 – Lincoln Laboratory ETS, New Mexico MPS 234082
2008 01 05.21547 03 53 52.72 +26 42 48.7 19.1   704 – Lincoln Laboratory ETS, New Mexico MPS 234082
2008 01 05.24109 03 53 52.42 +26 42 36.6 19.0   704 – Lincoln Laboratory ETS, New Mexico MPS 234082
2008 02 12.17284 04 08 41.02 +23 33 14.6 19.0 V G96 – Mt. Lemmon Survey MPS 239093
2008 02 12.17848 04 08 41.35 +23 33 13.6 19.3 V G96 – Mt. Lemmon Survey MPS 239093
2008 02 12.18429 04 08 41.64 +23 33 12.8 19.8 V G96 – Mt. Lemmon Survey MPS 239093
2008 02 12.18995 04 08 41.92 +23 33 11.5 20.1 V G96 – Mt. Lemmon Survey MPS 239093
2008 03 09.13166 04 36 39.16 +22 47 15.3 20.0 V G96 – Mt. Lemmon Survey MPS 243428
2008 03 09.13885 04 36 39.74 +22 47 14.8 19.9 V G96 – Mt. Lemmon Survey MPS 243428
2008 03 09.14606 04 36 40.24 +22 47 14.5 20.1 V G96 – Mt. Lemmon Survey MPS 243428
2008 03 09.15326 04 36 40.78 +22 47 14.2 19.9 V G96 – Mt. Lemmon Survey MPS 243428
